Location: Azul
(36.7830°S, 59.8500°W)
Time: 22:49:20
(UTC-03:00)

XW-2F - Pass Details

Date: 30 October 2021
Orbit: 497 x 515 km, 97.5° (Epoch: 27 November)

Event Time Altitude Azimuth Distance (km) Brightness Sun altitude
Rises 20:04:30 0° 187° (S) 2,664 ? -7.1°
Reaches altitude 10° 20:07:08 10° 206° (SSW) 1,763 ? -7.6°
Maximum altitude 20:09:42 18° 249° (WSW) 1,339 ? -8.1°
Drops below altitude 10° 20:12:14 10° 292° (WNW) 1,738 ? -8.6°
Sets 20:14:49 0° 311° (NW) 2,610 ? -9.0°
